Theta_e
308 309 309 309 309 308 308 308 307 306 304 303 301 299 301 299 297 295 291 292 289 284 284 285 285 282 284 284 278 282 281 282 281 277 277 277 275 278 278 280 277 279 277 276 273 273 275 282 286 285 285 285 286 290
308 309 308 308 308 308 307 307 306 305 304 301 299 299 300 300 297 296 290 292 293 285 284 288 288 289 288 287 283 283 281 282 282 278 279 278 278 279 277 277 280 278 281 279 279 278 280 281 282 284 286 286 286 288
307 308 307 307 307 307 307 306 304 302 299 298 298 298 299 299 299 295 291 290 290 284 284 285 283 288 291 289 289 282 284 285 284 284 280 279 276 278 278 276 279 281 283 279 278 278 279 282 284 284 285 286 286 287
306 307 306 307 307 307 306 305 302 300 299 298 297 298 298 298 296 295 290 290 288 284 279 279 288 283 288 289 289 288 287 287 285 284 281 280 278 280 277 278 280 281 281 279 278 279 280 282 283 283 284 284 283 284
306 306 306 306 306 306 304 303 302 300 298 297 296 297 296 296 294 292 289 288 287 284 277 277 279 280 287 286 288 288 286 285 284 281 280 278 281 279 280 277 278 280 278 278 277 280 281 282 283 284 283 283 284 284
305 305 305 305 305 304 303 302 301 299 298 296 296 296 294 294 294 289 283 287 286 285 282 273 278 274 282 282 283 283 284 284 283 282 280 282 282 279 275 274 278 279 280 280 279 280 281 282 282 282 283 282 282 282
304 305 305 305 304 303 303 302 300 298 297 295 296 295 295 293 289 284 283 286 287 284 280 272 273 277 275 274 283 281 283 280 281 279 278 277 278 277 274 273 277 277 277 277 277 279 279 278 278 276 276 274 273 272
304 304 304 304 303 303 302 300 299 297 296 296 296 296 294 293 290 285 284 287 286 281 278 270 271 277 276 280 280 277 277 279 270 275 271 266 272 272 270 277 278 278 278 275 275 275 276 276 274 274 274 274 274 274
303 303 303 303 303 302 301 299 297 296 296 296 296 294 288 282 280 283 288 286 282 282 274 271 270 271 277 277 274 280 273 272 269 267 265 265 269 268 273 276 276 275 274 274 271 269 270 271 271 270 270 272 272 272
302 303 302 302 301 300 299 298 297 296 296 296 290 283 276 281 286 285 280 278 277 274 274 270 267 271 274 274 271 272 271 265 268 265 263 264 267 271 273 271 272 273 272 271 270 271 269 271 270 270 270 267 268 267
302 302 301 301 300 299 299 298 297 296 294 286 280 276 280 282 278 275 271 272 270 269 271 268 266 268 272 273 268 270 265 264 265 266 264 264 267 273 267 265 264 264 266 267 266 266 265 267 267 267 267 266 265 264
301 301 301 300 299 299 298 298 297 288 285 286 282 280 276 274 272 269 267 265 265 270 266 268 268 275 270 270 269 266 265 264 264 260 263 265 273 269 265 264 262 261 260 262 263 266 266 267 265 265 264 265 264 262
301 300 300 299 299 299 298 298 294 291 286 282 279 272 273 269 266 265 264 266 265 266 265 265 265 269 267 270 265 266 265 264 260 263 265 270 270 267 263 260 260 257 257 259 262 262 263 263 261 262 264 262 262 263
300 300 300 299 299 298 298 296 293 288 284 276 273 270 269 265 267 269 270 269 266 269 268 269 265 268 265 265 263 265 259 259 263 263 267 270 267 263 261 259 261 262 260 262 263 262 262 262 263 262 260 260 260 262
300 299 299 298 298 298 297 294 291 284 280 273 273 270 267 267 264 261 260 263 265 269 268 266 266 271 263 262 262 261 262 263 265 267 269 269 265 261 263 263 262 261 262 263 263 262 262 261 262 263 263 263 262 261
299 298 295 298 298 298 295 290 286 282 277 272 270 269 267 267 264 262 263 264 264 268 267 268 264 264 262 262 263 263 265 266 270 268 269 267 263 262 262 261 261 260 261 263 264 264 264 263 264 264 266 265 264 263
296 288 298 298 298 295 293 286 285 279 275 269 269 270 272 271 268 266 266 266 267 267 267 265 264 265 264 264 264 266 268 270 269 269 267 264 265 263 261 262 262 263 264 264 264 263 263 263 261 264 265 265 264 263
290 295 297 297 292 290 285 285 278 273 269 270 270 271 271 270 266 264 263 265 267 267 267 267 266 262 264 266 267 269 268 268 268 267 266 265 265 264 265 265 264 265 265 265 266 264 263 264 264 264 262 264 265 264
294 295 295 294 291 286 282 280 278 271 269 270 267 268 267 264 263 262 263 264 264 265 267 266 265 265 267 267 268 267 268 269 270 268 266 265 264 264 265 265 265 266 266 263 264 263 262 261 262 263 263 262 261 262
297 295 295 295 290 280 275 275 277 273 268 269 268 267 266 264 264 263 263 264 265 265 266 265 266 266 266 264 264 264 264 265 268 268 267 266 267 266 265 265 265 263 263 263 263 264 263 262 263 263 262 262 263 263
293 293 294 288 282 280 277 276 269 268 266 265 265 267 264 265 265 265 265 265 265 265 266 265 264 260 260 259 260 261 263 265 263 264 263 265 265 265 265 265 265 264 262 262 261 261 261 259 260 261 261 261 261 261
290 292 286 286 280 274 271 269 269 267 266 263 266 267 266 266 266 267 266 265 267 264 263 264 264 263 260 258 258 258 258 260 262 263 265 265 263 263 262 261 262 262 260 258 256 257 259 258 260 260 260 260 261 261
291 289 285 284 276 271 267 268 265 265 264 263 265 266 265 265 265 265 265 265 263 264 262 261 262 261 261 259 259 260 261 262 262 262 262 263 261 260 260 259 258 257 256 257 256 256 257 259 259 259 259 259 259 260
290 285 282 277 272 264 269 264 265 265 264 265 267 264 265 264 264 265 266 264 262 262 259 258 261 261 261 261 260 258 258 260 262 261 260 260 259 258 257 256 256 255 255 255 255 256 256 257 258 258 258 258 258 258
282 280 276 268 267 265 262 263 264 265 263 264 267 267 266 267 265 265 265 263 262 259 258 259 260 260 261 259 260 259 259 259 258 260 258 258 256 257 256 256 255 254 256 256 255 255 255 256 256 255 256 256 255 256
275 276 271 268 264 265 266 266 265 264 263 264 266 265 266 269 269 270 260 257 257 256 255 256 256 259 258 258 259 258 258 259 258 259 255 255 255 255 253 254 254 254 256 253 254 253 253 254 254 254 255 255 257 256
269 269 267 265 267 268 269 269 267 266 263 265 264 263 266 270 270 258 256 255 255 255 257 257 256 257 257 257 258 257 258 259 257 256 255 255 256 256 255 253 251 253 256 254 252 251 253 254 254 255 256 256 256 256
267 264 267 264 265 268 271 268 264 266 265 263 267 264 268 266 260 253 254 255 254 254 254 253 254 254 255 255 255 256 256 257 256 255 255 255 254 253 253 252 252 260 254 253 252 253 252 255 256 256 255 255 255 255
262 263 267 263 265 264 261 263 260 254 252 255 262 257 251 251 252 252 253 253 254 253 251 251 251 252 253 254 254 254 254 254 252 251 250 250 250 251 254 252 251 252 252 251 256 259 259 259 257 256 253 253 254 254
260 260 263 262 264 261 257 257 256 251 251 251 251 252 251 250 250 252 251 251 250 249 250 250 249 250 249 250 250 250 249 250 251 249 248 248 249 252 252 252 252 253 253 250 254 254 257 253 253 249 249 250 252 253
257 259 258 257 256 256 256 257 256 253 252 250 250 250 249 249 250 251 250 250 249 249 250 250 250 249 249 248 247 248 249 249 249 249 249 249 250 250 250 252 253 252 252 252 252 251 251 250 249 249 250 250 250 250
259 258 258 257 255 257 258 259 258 256 254 253 251 251 250 249 248 250 252 249 249 249 250 248 247 248 248 248 248 248 252 249 250 251 249 250 249 252 254 255 253 250 249 249 249 248 247 246 246 246 247 248 248 248
263 259 258 258 257 257 259 260 258 255 255 253 252 252 252 252 251 252 253 254 253 251 250 249 247 247 247 247 247 247 250 248 249 257 257 259 258 259 252 249 248 247 247 247 247 247 247 245 245 245 246 246 246 246
Wind_Speed
26 24 24 22 20 19 17 16 16 15 12 10 5 1 1 3 1 2 2 3 2 1 0 2 2 2 2 0 2 5 3 0 2 3 2 2 3 2 1 2 4 5 5 3 1 2 4 4 3 1 1 2 3 3
27 26 25 23 21 19 18 16 16 14 11 4 3 3 3 2 2 2 2 1 3 3 2 1 1 1 2 2 2 3 3 2 2 3 1 3 2 2 2 3 3 1 2 3 3 4 1 3 3 1 1 2 4 4
28 26 25 23 22 20 19 20 18 13 5 5 4 3 5 2 2 3 2 3 3 2 0 1 3 2 2 2 1 2 0 4 2 1 2 2 3 1 3 3 2 4 2 1 2 3 2 4 5 4 4 5 5 6
29 27 26 24 22 22 21 21 18 14 8 5 3 5 3 2 4 1 1 1 2 1 1 1 2 0 1 3 4 3 3 3 3 1 2 2 2 2 2 0 1 2 4 5 2 2 2 4 5 3 7 8 9 8
29 28 27 25 25 24 21 19 20 17 10 6 3 5 2 4 3 5 3 2 2 1 1 0 1 2 4 5 4 4 4 4 1 2 2 2 1 3 2 2 2 4 2 1 3 1 2 2 3 4 7 6 7 7
29 28 26 26 27 25 23 22 20 19 12 7 4 5 2 3 4 1 3 2 1 1 2 0 1 2 4 4 4 3 3 2 2 1 0 1 1 2 3 2 2 2 3 4 2 3 4 5 6 5 5 5 7 8
30 28 27 26 27 26 23 22 22 19 14 8 8 7 7 3 2 3 1 2 5 2 1 1 1 0 2 2 3 2 2 1 1 1 1 2 2 1 2 2 2 2 2 4 5 4 5 6 2 5 6 4 4 3
30 29 28 27 27 26 24 23 22 19 15 11 12 11 9 11 9 2 2 3 4 2 2 3 2 0 4 2 3 1 2 1 4 1 2 3 5 0 3 3 1 2 2 4 5 6 3 2 4 5 4 3 5 5
31 29 29 28 27 27 25 23 23 20 16 14 17 13 4 4 1 1 4 4 2 2 2 1 3 3 2 1 2 2 1 3 2 2 1 1 2 2 3 2 3 4 2 1 2 4 5 5 2 2 3 6 5 4
31 30 29 29 30 28 26 25 23 20 17 19 4 2 1 1 6 4 0 1 2 3 3 2 0 2 1 1 1 2 2 0 2 4 3 3 4 2 1 1 2 2 2 2 3 4 4 3 3 4 2 0 2 1
32 31 31 31 30 29 27 26 24 22 14 2 3 2 1 1 2 1 1 2 2 1 1 0 1 3 2 1 2 1 2 0 3 5 4 3 4 3 2 3 2 3 2 1 3 2 3 3 3 2 3 3 2 1
33 32 32 31 30 29 28 28 28 7 3 6 7 5 2 3 2 3 1 2 1 4 0 2 2 1 1 1 3 3 2 3 2 2 4 3 5 3 4 3 2 3 3 2 0 2 3 3 1 0 1 2 2 3
34 34 33 32 30 29 29 29 19 21 12 3 4 4 3 3 3 5 5 4 1 3 4 3 1 1 2 1 3 2 4 2 1 3 3 5 4 4 5 3 4 3 3 3 4 3 3 2 3 3 3 2 4 5
35 34 33 32 30 30 29 27 25 11 4 3 5 3 5 2 5 4 0 1 2 3 3 3 2 2 1 4 1 4 3 3 4 4 3 3 3 5 4 2 3 5 4 3 3 3 4 4 4 4 2 3 2 5
35 33 32 30 31 29 29 26 14 4 3 2 4 4 4 1 2 1 1 1 2 1 2 2 3 3 2 4 2 3 5 2 5 5 3 2 2 2 4 4 4 3 2 4 3 3 4 4 3 4 3 4 2 4
36 32 14 32 31 30 29 16 4 3 2 3 3 3 1 2 0 0 2 2 2 0 2 2 3 4 2 4 3 5 5 4 4 2 2 1 2 2 2 2 2 2 3 4 3 2 2 3 4 5 7 4 5 4
23 2 33 32 32 31 22 5 3 2 3 3 0 1 1 2 2 2 2 1 2 3 1 3 4 6 2 3 3 3 5 3 2 1 2 3 3 2 2 4 4 3 4 4 3 4 3 4 4 5 8 7 7 6
9 24 35 36 24 13 3 3 4 3 2 2 3 3 1 1 3 2 1 0 2 2 3 3 5 3 5 4 3 3 1 1 2 3 2 3 3 4 3 4 3 3 3 4 5 4 5 7 7 5 5 6 6 5
25 25 39 33 13 6 5 1 2 4 1 2 2 2 2 2 2 1 1 2 1 1 4 3 3 3 3 1 1 1 1 1 2 2 2 3 4 4 3 4 4 5 6 4 6 4 3 3 3 3 4 4 4 4
36 38 35 24 8 4 5 2 1 5 4 3 3 2 2 2 1 1 1 0 2 2 2 2 4 2 1 0 2 1 1 2 2 3 2 3 4 6 8 5 4 4 4 5 4 7 5 4 4 6 6 6 6 8
31 23 23 7 4 5 5 3 3 2 3 3 2 2 2 1 2 2 2 1 3 3 1 1 2 2 2 2 2 2 4 5 3 2 2 2 2 4 4 5 4 6 5 6 6 6 6 4 4 6 6 6 5 5
10 19 4 3 5 4 5 2 4 2 4 2 2 2 3 2 2 2 2 2 1 1 1 2 2 2 3 3 3 3 3 3 4 4 5 5 4 3 4 4 4 5 5 4 2 3 5 4 6 6 6 7 7 6
17 5 4 3 5 5 1 1 4 1 5 3 1 3 1 1 1 2 1 1 2 2 2 2 2 4 6 3 3 4 7 5 5 5 5 3 4 3 3 4 4 4 4 4 2 3 5 7 6 7 6 7 7 8
7 5 4 4 5 2 2 2 1 3 3 2 3 4 2 2 1 1 2 2 2 2 3 4 2 3 2 4 3 3 5 4 2 4 4 3 3 3 2 2 2 2 1 3 3 4 4 6 8 7 8 9 9 9
7 4 6 4 2 6 4 3 1 2 3 2 4 3 3 2 2 2 4 2 2 3 3 3 3 4 3 2 2 3 4 3 3 3 4 3 1 2 3 3 2 2 3 5 7 7 7 6 7 7 8 7 9 11
5 3 5 6 3 6 6 6 6 6 4 3 2 3 1 2 3 6 2 2 2 2 3 3 3 1 4 3 2 3 3 3 3 3 2 2 3 4 2 4 4 3 5 2 4 6 7 7 7 9 9 10 11 10
5 3 2 1 4 4 3 2 2 5 5 6 5 5 4 5 7 2 2 2 2 2 2 3 3 3 3 2 2 2 3 3 1 1 1 2 4 4 5 3 3 4 6 5 4 3 6 8 9 9 10 9 8 8
4 5 9 4 3 1 5 4 5 7 5 1 7 5 8 4 2 1 2 2 1 2 2 2 3 3 2 3 2 3 2 4 2 3 3 3 3 2 4 2 2 7 4 4 3 3 3 6 7 9 9 10 10 9
3 1 6 5 3 5 5 3 2 2 2 1 5 3 3 2 1 1 1 1 2 2 2 2 2 2 2 1 3 4 5 6 4 5 4 1 3 4 4 3 3 3 3 3 8 9 9 7 9 7 7 7 8 8
0 2 6 4 4 3 3 3 3 1 3 4 4 4 3 1 1 1 2 3 3 2 1 1 2 3 2 3 2 4 4 4 4 3 3 0 3 5 5 5 5 5 4 3 5 6 7 4 4 4 4 4 5 7
1 3 6 5 4 2 3 4 3 2 4 4 4 4 3 3 0 0 2 1 1 1 2 2 3 2 3 3 3 2 2 1 2 1 2 3 4 4 4 4 4 3 3 4 5 5 5 4 4 6 8 9 10 9
3 4 5 6 3 3 3 0 2 3 3 3 3 2 2 2 2 2 2 2 2 2 2 2 2 1 2 1 1 2 4 3 4 3 4 3 3 4 5 4 3 3 4 4 4 3 3 4 4 5 6 8 9 9
4 3 4 6 4 4 4 3 2 4 4 3 1 1 1 2 3 2 1 1 2 2 1 2 3 2 3 3 3 2 3 3 4 6 6 6 6 5 3 2 3 3 4 3 4 4 5 5 5 6 8 8 8 9
Wind_Direction
180 177 175 172 173 170 176 174 169 168 171 173 133 165 255 145 222 333 69 20 20 237 141 221 282 309 321 333 333 353 291 124 268 269 292 354 309 28 15 48 134 138 131 181 18 54 264 358 49 153 265 276 287 60
179 176 173 172 172 170 175 167 156 159 173 172 197 198 276 192 194 309 110 23 38 81 50 8 251 6 14 37 314 315 320 285 337 294 294 287 271 291 311 106 333 111 126 168 161 219 309 352 86 30 283 342 6 51
178 174 169 171 170 170 167 157 153 147 113 203 208 228 272 129 191 347 104 145 85 126 112 268 227 181 162 65 47 285 1 350 300 73 310 299 299 289 6 46 72 320 65 247 104 343 81 24 73 24 33 84 70 79
175 172 170 168 167 168 167 157 136 128 163 184 202 245 154 94 124 203 124 120 55 160 196 155 102 182 15 291 224 199 279 249 246 253 269 301 312 26 339 252 209 201 178 189 122 99 141 64 66 99 68 72 74 58
173 170 168 166 164 161 159 149 137 142 157 162 202 213 184 132 99 82 73 56 56 153 164 100 143 299 315 305 269 249 290 277 274 233 261 1 299 327 197 326 8 344 346 70 156 43 94 68 103 81 80 73 67 93
170 170 170 166 159 156 154 146 140 141 145 155 188 183 196 161 155 208 27 1 40 310 111 58 153 22 307 339 2 346 341 313 278 282 46 212 101 297 299 71 300 18 42 8 111 9 73 90 65 18 84 57 44 66
168 168 167 164 153 152 151 145 141 138 138 162 163 123 134 128 60 116 164 351 340 316 102 40 231 222 288 291 326 316 318 93 333 290 272 261 196 296 254 86 293 342 25 15 12 3 38 22 37 4 62 31 43 59
167 166 163 160 151 152 149 144 140 136 136 175 139 124 112 100 111 83 17 349 320 101 86 109 261 143 353 301 298 39 313 202 9 10 34 20 312 4 43 292 37 55 357 43 31 34 84 98 32 18 4 18 55 48
164 161 158 153 147 148 144 142 139 136 148 148 130 123 88 37 66 87 324 331 330 149 158 133 165 186 333 267 266 303 103 338 249 61 55 72 296 50 222 0 22 3 64 284 20 43 40 83 41 17 31 22 55 11
161 158 155 149 147 144 143 140 140 140 153 132 87 88 180 133 316 291 258 49 14 336 27 116 329 152 1 252 34 350 16 346 19 282 336 59 276 262 250 195 169 48 47 18 75 24 19 28 24 2 45 111 126 224
156 154 150 149 145 143 145 142 139 144 128 81 114 113 66 359 50 346 61 81 348 347 11 96 135 148 324 158 177 51 197 307 64 278 96 317 310 266 299 313 333 351 9 58 119 137 137 121 96 53 10 10 18 26
153 152 149 147 146 147 147 143 149 127 149 142 117 97 98 47 36 90 222 343 161 219 256 150 182 79 197 3 103 301 139 50 233 306 62 333 260 275 343 311 336 6 351 342 337 41 11 39 76 107 5 3 354 301
151 149 147 147 148 149 145 150 140 127 116 70 73 72 77 307 48 161 216 276 275 169 184 176 116 104 2 33 62 73 64 210 93 47 218 229 271 308 317 328 340 10 37 24 14 36 21 16 19 60 357 323 337 330
148 147 146 146 150 150 152 148 143 134 87 111 137 163 162 229 243 189 214 100 247 92 134 113 94 117 270 50 311 82 247 52 43 38 258 265 285 306 342 332 57 14 21 42 55 36 38 31 356 335 279 286 302 310
144 142 145 150 150 151 146 143 128 59 86 115 100 196 206 207 67 78 182 94 282 139 101 66 50 101 8 76 33 102 28 331 181 219 226 250 322 43 30 34 69 72 61 51 27 37 14 10 10 318 298 293 297 311
139 140 145 149 150 143 140 122 72 87 53 88 74 94 109 76 237 154 242 137 226 175 341 39 115 62 0 121 68 224 119 223 249 217 252 46 61 55 54 38 24 12 30 19 24 8 337 2 341 316 327 12 356 320
131 107 151 147 139 135 135 90 92 81 131 89 154 11 32 109 143 136 154 161 193 90 170 102 81 192 118 44 299 189 199 229 198 45 29 54 73 59 33 65 41 37 36 22 8 10 359 329 356 32 11 339 340 323
115 138 142 134 127 113 50 56 92 105 133 166 145 143 116 23 112 113 124 260 108 150 93 199 125 102 170 169 271 247 216 230 62 71 55 27 51 42 53 77 44 29 30 32 19 18 22 22 36 7 337 332 325 337
141 141 135 133 136 111 116 114 93 124 118 95 85 66 69 111 73 42 90 74 6 301 106 67 85 201 234 207 218 290 43 56 131 111 76 44 54 49 36 38 44 37 44 38 30 18 0 76 48 353 336 335 333 320
135 134 138 148 111 93 89 58 53 111 163 163 92 101 72 82 118 66 69 46 119 81 35 153 202 203 152 46 358 22 331 285 130 95 74 29 23 46 41 33 23 352 28 16 35 30 17 14 13 359 351 346 349 343
126 148 141 95 61 62 88 120 58 106 136 105 149 139 104 176 120 150 204 154 63 193 208 217 88 78 44 38 359 354 9 14 46 83 126 92 356 65 40 25 32 40 43 28 21 7 15 5 334 337 336 332 331 316
118 120 91 30 85 70 79 341 119 137 77 148 128 145 118 150 146 176 134 70 214 134 48 22 79 132 78 39 352 9 305 28 39 52 32 29 33 22 30 10 24 44 48 31 359 344 333 329 335 335 333 327 325 320
106 91 75 83 82 55 239 23 80 336 117 194 64 94 105 114 48 15 141 133 99 37 27 50 40 57 110 149 79 38 23 33 62 50 34 49 69 37 62 45 39 47 15 360 335 339 337 328 333 332 324 330 331 334
90 81 112 105 89 138 115 33 36 98 82 143 127 103 110 126 171 79 224 144 88 66 33 346 357 95 67 73 49 31 9 355 57 80 29 30 70 37 53 52 74 81 58 286 326 337 337 343 339 346 347 344 343 338
109 159 113 99 61 105 102 138 130 86 119 163 112 128 154 144 134 190 220 135 108 77 23 343 39 28 81 100 94 84 33 21 43 71 33 25 33 61 27 25 59 77 15 7 1 350 342 339 342 335 331 329 326 327
108 78 117 157 168 129 178 139 175 162 133 115 96 81 131 157 161 237 136 26 50 46 20 20 3 39 67 34 42 27 357 356 353 74 31 19 51 96 70 31 1 325 15 357 343 335 327 328 326 327 327 325 323 324
117 150 91 10 108 120 106 74 55 111 141 162 160 152 163 186 229 113 112 25 49 29 9 21 10 33 56 45 37 6 335 355 324 145 201 57 73 79 75 43 343 293 329 328 319 309 318 321 322 320 320 325 324 323
144 167 135 186 96 272 132 121 145 185 175 195 109 164 185 203 162 53 47 35 27 338 74 53 38 30 40 42 356 343 340 343 61 85 62 47 71 88 53 7 299 316 301 288 276 276 276 297 307 324 328 326 321 326
82 317 92 70 86 50 46 46 82 48 334 358 108 115 122 60 12 14 27 344 319 47 67 51 27 12 68 71 49 32 28 22 76 84 76 3 349 316 354 323 305 306 304 319 322 332 326 339 337 328 317 311 310 313
354 360 95 65 67 77 46 359 81 105 31 77 101 101 78 40 285 322 30 29 49 61 56 58 10 44 52 63 42 29 20 52 49 96 121 282 260 299 315 316 322 318 317 317 322 322 327 339 313 328 328 329 346 343
148 80 79 51 79 61 95 117 123 112 75 63 21 82 115 150 339 344 81 83 100 69 75 59 64 31 71 54 70 68 15 293 60 279 230 249 263 275 283 287 283 280 298 314 325 330 335 332 340 351 355 353 345 347
55 67 122 110 115 159 222 136 73 70 78 74 71 101 123 109 134 210 162 113 95 104 114 132 131 187 192 225 233 229 245 274 300 306 293 273 267 268 280 291 330 3 356 342 336 328 335 347 346 349 343 340 338 336
105 80 85 107 117 186 182 150 92 99 68 82 79 109 56 96 129 138 131 145 143 142 176 199 210 213 206 208 218 260 305 278 303 327 328 337 334 356 14 9 12 17 16 6 359 357 9 9 359 348 346 339 330 326